• In Hungary
  • List of Countries
  • For 7 days
  • Water Temperature
  • Satellite Maps
  • Weather Map
  • News
  • Weather Widgets
  • user-avatar
    Login

    Hourly Weather Zhiroma

    Today, 16 August, Thursday

    Time Temperature Precipitation Wind Pressure Humidity
    00:00 +15°C° 0 mm 1 mps 738 mmHg 99%
    01:00 +15°C° 0 mm 1 mps 738 mmHg 99%
    02:00 +14°C° 0 mm 1 mps 739 mmHg 98%
    03:00 +14°C° 0 mm 1 mps 739 mmHg 98%
    04:00 +14°C° 0 mm 1 mps 740 mmHg 98%
    05:00 +14°C° 0 mm 1 mps 740 mmHg 98%
    06:00 +14°C° 0 mm 1 mps 740 mmHg 96%
    07:00 +15°C° 0 mm 1 mps 741 mmHg 93%
    08:00 +15°C° 0 mm 1 mps 741 mmHg 91%
    09:00 +16°C° 0 mm 1 mps 742 mmHg 88%
    10:00 +18°C° 0 mm 1 mps 742 mmHg 84%
    11:00 +18°C° 0 mm 1 mps 742 mmHg 80%
    12:00 +19°C° 0 mm 1 mps 743 mmHg 74%
    13:00 +21°C° 0 mm 1 mps 743 mmHg 68%
    14:00 +22°C° 0 mm 1 mps 743 mmHg 62%
    15:00 +22°C° 0 mm 1 mps 743 mmHg 62%
    16:00 +22°C° 0 mm 1 mps 743 mmHg 61%
    17:00 +22°C° 0 mm 1 mps 744 mmHg 60%
    18:00 +20°C° 0 mm 1 mps 744 mmHg 67%
    19:00 +19°C° 0 mm 1 mps 744 mmHg 74%
    20:00 +16°C° 0 mm 1 mps 744 mmHg 81%
    21:00 +15°C° 0 mm 1 mps 744 mmHg 84%
    22:00 +14°C° 0 mm 1 mps 744 mmHg 86%
    23:00 +14°C° 0 mm 1 mps 745 mmHg 88%

    Tomorrow, 17 August, Friday

    Time Temperature Precipitation Wind Pressure Humidity
    00:00 +13°C° 0 mm 1 mps 745 mmHg 89%
    01:00 +13°C° 0 mm 1 mps 745 mmHg 90%
    02:00 +13°C° 0 mm 1 mps 745 mmHg 92%
    03:00 +12°C° 0 mm 1 mps 746 mmHg 92%
    04:00 +12°C° 0 mm 1 mps 746 mmHg 92%
    05:00 +12°C° 0 mm 1 mps 746 mmHg 92%
    06:00 +14°C° 0 mm 1 mps 746 mmHg 84%
    07:00 +18°C° 0 mm 1 mps 747 mmHg 76%
    08:00 +20°C° 0 mm 1 mps 747 mmHg 68%
    09:00 +20°C° 0 mm 2 mps 747 mmHg 62%
    10:00 +21°C° 0 mm 2 mps 747 mmHg 55%
    11:00 +24°C° 0 mm 2 mps 747 mmHg 49%
    12:00 +24°C° 0 mm 2 mps 746 mmHg 47%
    13:00 +25°C° 0 mm 2 mps 746 mmHg 46%
    14:00 +25°C° 0 mm 2 mps 746 mmHg 44%
    15:00 +25°C° 0 mm 2 mps 746 mmHg 48%
    16:00 +24°C° 0 mm 2 mps 746 mmHg 52%
    17:00 +24°C° 0 mm 2 mps 745 mmHg 56%
    18:00 +21°C° 0 mm 2 mps 745 mmHg 63%
    19:00 +19°C° 0 mm 2 mps 745 mmHg 70%
    20:00 +16°C° 0 mm 2 mps 745 mmHg 77%
    21:00 +16°C° 0 mm 2 mps 745 mmHg 79%
    22:00 +15°C° 0 mm 2 mps 745 mmHg 81%
    23:00 +14°C° 0 mm 2 mps 745 mmHg 84%

    Day after tomorrow, 18 August, Saturday

    Time Temperature Precipitation Wind Pressure Humidity
    00:00 +14°C° 0 mm 2 mps 745 mmHg 84%
    01:00 +13°C° 0 mm 2 mps 745 mmHg 85%
    02:00 +13°C° 0 mm 2 mps 745 mmHg 85%
    03:00 +13°C° 0 mm 2 mps 745 mmHg 85%
    04:00 +12°C° 0 mm 2 mps 745 mmHg 85%
    05:00 +12°C° 0 mm 2 mps 746 mmHg 86%
    06:00 +14°C° 0 mm 2 mps 746 mmHg 79%
    07:00 +17°C° 0 mm 2 mps 746 mmHg 73%
    08:00 +19°C° 0 mm 2 mps 746 mmHg 66%
    09:00 +20°C° 0 mm 2 mps 746 mmHg 60%
    10:00 +23°C° 0 mm 2 mps 746 mmHg 54%
    11:00 +25°C° 0 mm 3 mps 745 mmHg 48%
    12:00 +25°C° 0 mm 3 mps 745 mmHg 47%
    13:00 +26°C° 0 mm 3 mps 745 mmHg 45%
    14:00 +26°C° 0 mm 3 mps 745 mmHg 44%
    15:00 +26°C° 0 mm 2 mps 744 mmHg 48%
    16:00 +25°C° 0 mm 2 mps 744 mmHg 52%
    17:00 +25°C° 0 mm 2 mps 744 mmHg 57%
    18:00 +23°C° 0 mm 2 mps 744 mmHg 64%
    19:00 +20°C° 0 mm 2 mps 744 mmHg 71%
    20:00 +18°C° 0 mm 2 mps 744 mmHg 78%
    21:00 +17°C° 0 mm 2 mps 744 mmHg 80%
    22:00 +17°C° 0 mm 2 mps 744 mmHg 82%
    23:00 +17°C° 0 mm 2 mps 743 mmHg 83%

    19 August, Sunday

    Time Temperature Precipitation Wind Pressure Humidity
    00:00 +16°C° 0 mm 2 mps 743 mmHg 84%
    01:00 +16°C° 0 mm 2 mps 743 mmHg 85%
    02:00 +16°C° 0 mm 2 mps 743 mmHg 86%
    03:00 +16°C° 0 mm 3 mps 743 mmHg 86%
    04:00 +16°C° 0 mm 3 mps 742 mmHg 86%
    05:00 +14°C° 0 mm 3 mps 742 mmHg 86%
    06:00 +17°C° 0 mm 3 mps 742 mmHg 83%
    07:00 +18°C° 0 mm 3 mps 742 mmHg 79%
    08:00 +19°C° 0 mm 3 mps 742 mmHg 76%
    09:00 +20°C° 0.1 mm 3 mps 741 mmHg 74%
    10:00 +21°C° 0.1 mm 3 mps 741 mmHg 73%
    11:00 +23°C° 0.1 mm 4 mps 741 mmHg 71%
    12:00 +22°C° 0.6 mm 3 mps 741 mmHg 76%
    13:00 +22°C° 0.6 mm 3 mps 740 mmHg 80%
    14:00 +22°C° 0.6 mm 3 mps 740 mmHg 84%
    15:00 +22°C° 0.8 mm 3 mps 740 mmHg 86%
    16:00 +21°C° 0.8 mm 3 mps 739 mmHg 87%
    17:00 +21°C° 0.8 mm 2 mps 739 mmHg 89%
    18:00 +20°C° 0.2 mm 2 mps 739 mmHg 91%
    19:00 +19°C° 0.2 mm 2 mps 739 mmHg 94%
    20:00 +18°C° 0.2 mm 2 mps 739 mmHg 96%
    21:00 +17°C° 0 mm 2 mps 740 mmHg 97%
    22:00 +18°C° 0 mm 1 mps 740 mmHg 97%
    23:00 +16°C° 0 mm 1 mps 740 mmHg 97%

    20 August, Monday

    Time Temperature Precipitation Wind Pressure Humidity
    00:00 +16°C° 0 mm 1 mps 740 mmHg 97%
    01:00 +16°C° 0 mm 1 mps 740 mmHg 97%
    02:00 +15°C° 0 mm 1 mps 740 mmHg 97%
    03:00 +15°C° 0.1 mm 1 mps 741 mmHg 97%
    04:00 +15°C° 0.1 mm 1 mps 741 mmHg 98%
    05:00 +15°C° 0.1 mm 1 mps 741 mmHg 98%
    06:00 +16°C° 0.1 mm 1 mps 741 mmHg 96%
    07:00 +16°C° 0.1 mm 1 mps 741 mmHg 95%
    08:00 +16°C° 0.1 mm 1 mps 741 mmHg 94%
    09:00 +18°C° 0 mm 1 mps 741 mmHg 87%
    10:00 +20°C° 0 mm 1 mps 742 mmHg 80%
    11:00 +21°C° 0 mm 1 mps 742 mmHg 74%
    12:00 +20°C° 0 mm 2 mps 741 mmHg 69%
    13:00 +21°C° 0 mm 2 mps 741 mmHg 64%
    14:00 +23°C° 0 mm 2 mps 741 mmHg 59%
    15:00 +21°C° 0 mm 2 mps 741 mmHg 61%
    16:00 +21°C° 0 mm 2 mps 741 mmHg 63%
    17:00 +21°C° 0 mm 1 mps 741 mmHg 65%
    18:00 +20°C° 0 mm 1 mps 740 mmHg 69%
    19:00 +18°C° 0 mm 1 mps 740 mmHg 74%
    20:00 +16°C° 0 mm 1 mps 740 mmHg 78%
    21:00 +15°C° 0 mm 1 mps 740 mmHg 78%
    22:00 +15°C° 0 mm 1 mps 740 mmHg 78%
    23:00 +15°C° 0 mm 1 mps 740 mmHg 79%

    21 August, Tuesday

    Time Temperature Precipitation Wind Pressure Humidity
    00:00 +14°C° 0 mm 2 mps 740 mmHg 81%
    01:00 +14°C° 0 mm 2 mps 740 mmHg 83%
    02:00 +14°C° 0 mm 2 mps 739 mmHg 85%
    03:00 +14°C° 0 mm 2 mps 739 mmHg 85%
    04:00 +13°C° 0 mm 3 mps 739 mmHg 85%
    05:00 +13°C° 0 mm 3 mps 738 mmHg 86%
    06:00 +16°C° 0 mm 3 mps 738 mmHg 83%
    07:00 +17°C° 0 mm 4 mps 738 mmHg 80%
    08:00 +19°C° 0 mm 4 mps 738 mmHg 77%
    09:00 +20°C° 0.1 mm 5 mps 738 mmHg 74%
    10:00 +21°C° 0.1 mm 5 mps 737 mmHg 72%
    11:00 +22°C° 0.1 mm 5 mps 737 mmHg 69%
    12:00 +22°C° 0.3 mm 6 mps 737 mmHg 70%
    13:00 +23°C° 0.3 mm 6 mps 737 mmHg 70%
    14:00 +23°C° 0.3 mm 6 mps 736 mmHg 71%
    15:00 +22°C° 0.2 mm 5 mps 736 mmHg 72%
    16:00 +22°C° 0.2 mm 5 mps 736 mmHg 74%
    17:00 +22°C° 0.2 mm 4 mps 736 mmHg 75%
    18:00 +20°C° 0 mm 4 mps 736 mmHg 81%
    19:00 +19°C° 0 mm 3 mps 736 mmHg 86%
    20:00 +18°C° 0 mm 3 mps 737 mmHg 91%
    21:00 +17°C° 0 mm 3 mps 737 mmHg 93%
    22:00 +17°C° 0 mm 3 mps 737 mmHg 95%
    23:00 +16°C° 0 mm 3 mps 737 mmHg 96%
    Show more